Regional Weather Roundup
Issued by NWS Glasgow, MT

Home | Current Version | Previous Version | Text Only | Print | Product List | Glossary On
Versions: 1 2 3 4 5 6 7 8 9 10 11 12 13 14 15 16 17 18 19 20 21 22 23 24 25 26 27 28 29 30 31 32 33 34 35 36 37 38 39 40 41 42 43 44 45 46 47 48 49 50
000
ASUS45 KGGW 310115
RWRGGW
HOURLY REGIONAL WEATHER ROUNDUP FOR NORTHEAST MONTANA
NATIONAL WEATHER SERVICE GLASGOW MONTANA
700 PM MDT SUN AUG 30 2015

NOTE: "FAIR" INDICATES FEW OR NO CLOUDS BELOW 12,000 FEET WITH NO
SIGNIFICANT WEATHER AND/OR OBSTRUCTIONS TO VISISBILITY.

NORTHEAST MONTANA


CITY           SKY/WX    TMP DP  RH WIND       PRES   REMARKS
GLASGOW        MOCLDY    78  48  34 N3        29.69R
PLENTYWOOD       N/A     79  44  28 S5          N/A
WOLF POINT     MOCLDY    82  52  35 CALM      29.67F
JORDAN           N/A     78  49  35 N12       29.71R
WINNETT          N/A     61  55  81 N9G31       N/A
SIDNEY         PTCLDY    79  46  31 NE6       29.69F
GLENDIVE       MOCLDY    79  46  31 NE9       29.73S
MALTA            N/A     76  55  48 NE3G12      N/A
SCOBEY           N/A     77  48  35 SW5       29.73R

FORT PECK REPORTS


CITY           SKY/WX    TMP DP  RH WIND       PRES   REMARKS
FORT PECK        N/A     76  51  41 SE5         N/A
THE PINES        N/A     68  55  63 SW6G14      N/A

SOUTHEAST MONTANA


CITY           SKY/WX    TMP DP  RH WIND       PRES   REMARKS
BILLINGS       MOCLDY    82  47  29 E9        29.73F
MILES CITY     CLOUDY    80  50  34 SW8       29.75R THUNDER
BAKER          MOCLDY    82  52  35 E7        29.75F
LIVINGSTON     MOSUNNY   81  30  15 SW28G39   29.77S

CENTRAL MONTANA


CITY           SKY/WX    TMP DP  RH WIND       PRES   REMARKS
HAVRE          MOCLDY    78  36  21 W30G38    29.68R HAZE
LEWISTOWN      CLOUDY    70  47  43 S5        29.78R
GREAT FALLS    CLOUDY    65  38  36 W23G36    29.79R
CUT BANK       CLOUDY    60  39  45 W28G37    29.82F
HELENA         CLOUDY    68  39  34 NW7       29.87R
BUTTE          CLOUDY    64  37  36 NW9       29.94R
BOZEMAN        PTSUNNY   79  26  14 SW12      29.79R

WESTERN MONTANA


CITY           SKY/WX    TMP DP  RH WIND       PRES   REMARKS
MISSOULA       LGT RAIN  53  50  89 CALM      30.02R
KALISPELL      NOT AVBL

NORTH DAKOTA


CITY           SKY/WX    TMP DP  RH WIND       PRES   REMARKS
WILLISTON      PTCLDY    77  47  34 NE3       29.71S
DICKINSON      MOCLDY    78  52  40 N6        29.72  HAZE
MINOT          MOCLDY    79  58  48 W7        29.66R HAZE
BISMARCK       PTCLDY    88  65  46 NE3       29.62F

SOUTHERN SASKATCHEWAN


CITY           SKY/WX    TMP DP  RH WIND       PRES   REMARKS
REGINA         PTCLDY    68  59  73 SE9       29.66S
ESTEVAN        MOCLDY    75  50  41 NE2       29.68F
SWIFT CURRENT  CLEAR     75  37  25 W13G18    29.65R




USA.gov is the U.S. government's official web portal to all federal, state and local government web resources and services.